Weather History for KUGN - August, 2012

Change the Weather History Date:

Saturday, August 18, 2012

  Actual Average Record
Temperature  
Mean Temperature 63 °F -  
Max Temperature 74 °F 79 °F 84 °F (2008)
Min Temperature 51 °F 61 °F 51 °F (2012)
Degree Days  
Heating Degree Days 2 0  
Month to date heating degree days 7 0  
Since 1 June heating degree days 55 98  
Since 1 July heating degree days 7 12  
Cooling Degree Days 0 5  
Month to date cooling degree days 99 107  
Year to date cooling degree days 818 442  
Since 1 June cooling degree days 735 417  
Growing Degree Days 13 (Base 50)    
Moisture  
Dew Point 52 °F    
Average Humidity 69    
Maximum Humidity 93    
Minimum Humidity 44    
Precipitation  
Precipitation 0.00 in 0.11 in 1.53 in (2001)
Month to date precipitation 1.67 2.29  
Year to date precipitation 16.87 22.91  
Sea Level Pressure  
Sea Level Pressure 29.98 in    
Wind  
Wind Speed 3 mph (SE)    
Max Wind Speed 13 mph    
Max Gust Speed 16 mph    
Visibility 10 miles    
Events      
T = Trace of Precipitation, MM = Missing Value Source: NWS Daily Summary

Daily Weather History Graph

Daily Weather History Graph

Search for Another Location

Airport or City:

Trip Planner

Search our weather history database for the weather conditions in past years. The results will help you decide how hot, cold, wet, or windy it might be!

Date:

Astronomy

Aug. 18, 2012 Rise Set
Actual Time 6:02 AM CDT 7:47 PM CDT
Civil Twilight 5:32 AM CDT 8:17 PM CDT
Nautical Twilight 4:55 AM CDT 8:53 PM CDT
Astronomical Twilight 4:16 AM CDT 9:32 PM CDT
Moon 7:12 AM CDT (8/18) 7:59 PM CDT (8/18)
Length of Visible Light 14h 45m
Length of Day
13h 45m
New Moon, 1% of the Moon is Illuminated
Aug 18
New Moon
Aug 24
First Quarter
Aug 31
Full
Sep 8
Last Quarter
Sep 15
New

Hourly Weather History & Observations

Time (CDT) Temp. Dew Point Humidity Pressure Visibility Wind Dir Wind Speed Gust Speed Precip Events Conditions
12:52 AM 54.0 °F 52.0 °F 93% 30.01 in 7.0 mi Calm Calm - N/A   Clear
1:52 AM 53.1 °F 51.1 °F 93% 30.00 in 9.0 mi Calm Calm - N/A   Clear
2:52 AM 55.0 °F 53.1 °F 93% 30.00 in 10.0 mi West 3.5 mph - N/A   Clear
3:52 AM 54.0 °F 52.0 °F 93% 30.00 in 9.0 mi Calm Calm - N/A   Clear
4:52 AM 54.0 °F 52.0 °F 93% 30.01 in 10.0 mi Calm Calm - N/A   Clear
5:52 AM 53.1 °F 51.1 °F 93% 30.01 in 8.0 mi Calm Calm - N/A   Clear
6:52 AM 53.1 °F 52.0 °F 96% 30.01 in 5.0 mi Calm Calm - N/A   Clear
8:52 AM 66.9 °F 55.9 °F 68% 30.02 in 10.0 mi Variable 4.6 mph - N/A   Clear
9:52 AM 69.1 °F 55.0 °F 61% 30.01 in 10.0 mi Variable 3.5 mph - N/A   Clear
10:52 AM 71.1 °F 52.0 °F 51% 30.00 in 10.0 mi Variable 4.6 mph - N/A   Clear
11:52 AM 72.0 °F 48.0 °F 43% 30.01 in 10.0 mi Variable 4.6 mph - N/A   Scattered Clouds
12:52 PM 73.9 °F 51.1 °F 45% 29.99 in 10.0 mi Variable 4.6 mph - N/A   Scattered Clouds
1:52 PM 72.0 °F 55.0 °F 55% 29.97 in 10.0 mi ESE 10.4 mph - N/A   Mostly Cloudy
2:52 PM 72.0 °F 52.0 °F 49% 29.96 in 10.0 mi SE 6.9 mph - N/A   Scattered Clouds
3:52 PM 72.0 °F 52.0 °F 49% 29.96 in 10.0 mi ESE 10.4 mph - N/A   Scattered Clouds
4:52 PM 72.0 °F 51.1 °F 48% 29.94 in 10.0 mi ESE 6.9 mph - N/A   Scattered Clouds
5:52 PM 71.1 °F 52.0 °F 51% 29.93 in 10.0 mi ESE 8.1 mph - N/A   Clear
6:52 PM 68.0 °F 52.0 °F 56% 29.93 in 10.0 mi ESE 4.6 mph - N/A   Clear
7:52 PM 66.9 °F 52.0 °F 59% 29.94 in 10.0 mi SE 3.5 mph - N/A   Clear
8:52 PM 61.0 °F 53.1 °F 75% 29.94 in 10.0 mi Calm Calm - N/A   Clear
9:52 PM 60.1 °F 53.1 °F 78% 29.94 in 10.0 mi Calm Calm - N/A   Clear
10:52 PM 60.1 °F 54.0 °F 80% 29.95 in 10.0 mi Calm Calm - N/A   Clear
11:52 PM 61.0 °F 54.0 °F 78% 29.94 in 10.0 mi Calm Calm - N/A   Clear